Location: Newark
(39.9581°N, 97.2014°W)
Time: 11:07:04
(UTC+00:00)

Courier 1B - All Passes

Search period start: 19 February 2020 00:00
Search period end: 29 February 2020 00:00
Orbit: 962 x 1209 km, 28.3° (Epoch: 18 February)

Date Brightness Start Highest point End Pass type
(mag) Time Alt. Az. Time Alt. Az. Time Alt. Az.
19 Feb - 01:25:38 10° WSW 01:31:42 31° S 01:37:28 10° ESE visible
19 Feb - 03:19:55 10° WSW 03:24:54 22° SSW 03:29:44 10° SSE visible
19 Feb - 20:49:44 10° SSE 20:51:28 11° SSE 20:53:12 10° SE daylight
19 Feb - 22:38:56 10° SW 22:44:42 24° SSE 22:50:12 10° ESE daylight
20 Feb - 00:31:49 10° WSW 00:38:04 32° S 00:44:00 10° ESE visible
20 Feb - 02:25:51 10° WSW 02:31:22 25° SSW 02:36:40 10° SE visible
20 Feb - 04:22:13 10° SW 04:24:20 12° SSW 04:26:27 10° S visible
20 Feb - 21:45:38 10° SSW 21:51:02 21° SSE 21:56:15 10° ESE daylight
20 Feb - 23:38:04 10° SW 23:44:25 31° S 23:50:27 10° ESE daylight
21 Feb - 01:31:51 10° WSW 01:37:47 29° S 01:43:27 10° SE visible
21 Feb - 03:27:04 10° WSW 03:30:52 16° SSW 03:34:35 10° S visible
21 Feb - 20:52:34 10° SSW 20:57:23 18° SSE 21:02:05 10° ESE daylight
21 Feb - 22:44:22 10° SW 22:50:44 30° S 22:56:48 10° ESE daylight
22 Feb - 00:37:54 10° WSW 00:44:09 31° S 00:50:07 10° SE visible
22 Feb - 02:32:34 10° WSW 02:37:22 20° SSW 02:42:00 10° SSE visible
22 Feb - 19:59:54 10° S 20:03:44 14° SSE 20:07:30 10° SE daylight
22 Feb - 21:50:46 10° SW 21:57:02 28° SSE 22:03:03 10° ESE daylight
22 Feb - 23:43:59 10° WSW 23:50:30 33° S 23:56:41 10° ESE daylight
23 Feb - 01:38:19 10° WSW 01:43:49 24° SSW 01:49:05 10° SSE visible
23 Feb - 19:08:21 10° SSE 19:10:06 11° SSE 19:11:50 10° SE daylight
23 Feb - 20:57:19 10° SW 21:03:20 25° SSE 21:09:10 10° ESE daylight
23 Feb - 22:50:09 10° WSW 22:56:48 33° S 23:03:09 10° ESE daylight
24 Feb - 00:44:11 10° WSW 00:50:13 27° SSW 00:55:58 10° SE visible
24 Feb - 02:40:08 10° SW 02:43:16 13° SSW 02:46:21 10° S visible
24 Feb - 20:04:03 10° SSW 20:09:38 21° SSE 20:15:06 10° ESE daylight
24 Feb - 21:56:23 10° SW 22:03:04 32° S 22:09:30 10° ESE daylight
24 Feb - 23:50:09 10° WSW 23:56:34 31° S 00:02:40 10° SE daylight
25 Feb - 01:45:15 10° WSW 01:49:45 18° SSW 01:54:07 10° SSE visible
25 Feb - 19:11:04 10° SSW 19:15:57 18° SSE 19:20:46 10° ESE daylight
25 Feb - 21:02:43 10° SW 21:09:20 31° S 21:15:45 10° ESE daylight
25 Feb - 22:56:11 10° WSW 23:02:52 33° S 23:09:15 10° SE daylight
26 Feb - 00:50:47 10° WSW 00:56:11 22° SSW 01:01:22 10° SSE visible
26 Feb - 18:18:36 10° S 18:22:18 14° SSE 18:25:59 10° SE daylight
26 Feb - 20:09:10 10° SW 20:15:35 28° SSE 20:21:53 10° ESE daylight
26 Feb - 22:02:18 10° WSW 22:09:08 34° S 22:15:43 10° ESE daylight
26 Feb - 23:56:33 10° WSW 00:02:34 26° SSW 00:08:21 10° SE daylight
27 Feb - 01:53:38 10° SW 01:55:36 11° SSW 01:57:33 10° SSW visible
27 Feb - 17:27:57 10° SSE 17:28:40 10° SSE 17:29:24 10° SE daylight
27 Feb - 19:15:48 10° SSW 19:21:51 25° SSE 19:27:52 10° ESE daylight
27 Feb - 21:08:29 10° WSW 21:15:22 34° S 21:22:04 10° ESE daylight
27 Feb - 23:02:26 10° WSW 23:08:54 30° SSW 23:15:07 10° SE daylight
28 Feb - 00:58:02 10° WSW 01:02:05 15° SSW 01:06:00 10° S visible
28 Feb - 18:22:39 10° SSW 18:28:09 21° SSE 18:33:40 10° ESE daylight
28 Feb - 20:14:46 10° SW 20:21:35 33° S 20:28:19 10° ESE daylight
28 Feb - 22:08:25 10° WSW 22:15:10 32° S 22:21:42 10° SE daylight
